Regional Weather Roundup
Issued by NWS Upton, NY

Home | Current Version | Previous Version | Text Only | Print | Product List | Glossary On
Versions: 1 2 3 4 5 6 7 8 9 10 11 12 13 14 15 16 17 18 19 20 21 22 23 24 25 26 27 28 29 30 31 32 33 34 35 36 37 38 39 40 41 42 43 44 45 46 47 48 49 50
000
ASUS41 KOKX 301318
RWROKX

REGIONAL WEATHER ROUNDUP
NATIONAL WEATHER SERVICE NEW YORK NY
900 AM EDT SAT MAY 30 2015

NOTE: "FAIR" INDICATES FEW OR NO CLOUDS BELOW 12,000 FEET WITH NO
SIGNIFICANT WEATHER AND/OR OBSTRUCTIONS TO VISIBILITY.

NYZ071-072-176-178-NJZ106-104-301400-
NEW YORK CITY METRO AREA


CITY           SKY/WX    TMP DP  RH WIND       PRES   REMARKS
CENTRAL PARK   SUNNY     73  64  73 SW8       30.24S
LAGUARDIA APRT MOSUNNY   75  64  68 SW10      30.21S
KENNEDY INTL   HAZE      68  62  81 S8        30.23S VSB 3/4
NEWARK/LIBERTY MOSUNNY   75  66  73 S8        30.21S
BRNX BOT. GARD   N/A     75  64  69 S3        30.23R
TETERBORO      MOSUNNY   74  64  71 S10       30.20S
$$

NYZ177-179-078>081-301400-
LONG ISLAND NEW YORK

CITY           SKY/WX    TMP DP  RH WIND       PRES   REMARKS
FARMINGDALE    CLOUDY    68  65  90 SW8       30.23S
ISLIP          PTSUNNY   69  64  84 S13       30.22S
SHIRLEY        CLOUDY    68  64  87 S8        30.24S
WESTHAMPTON    FOG       64  64 100 SW8       30.25S VSB 1/2
MONTAUK POINT    N/A     64  63  96 S7        30.25F
$$

NYZ052-065-067-301400-
HUDSON VALLEY

CITY           SKY/WX    TMP DP  RH WIND       PRES   REMARKS
WHITE PLAINS   MOSUNNY   71  64  78 SW6       30.22R
NEWBURGH       SUNNY     72  64  78 S6        30.21R
MONTGOMERY     SUNNY     73  66  78 SW9       30.19S
POUGHKEEPSIE   SUNNY     74  63  68 S6        30.18S
ALBANY         MOSUNNY   74  62  66 S12G22    30.13F
$$

NJZ001-105-106-008-010-013-015-019>022-104-301400-
NEW JERSEY

CITY           SKY/WX    TMP DP  RH WIND       PRES   REMARKS
NEWARK/LIBERTY MOSUNNY   75  66  73 S8        30.21S
TETERBORO      MOSUNNY   74  64  71 S10       30.20S
CALDWELL       MOSUNNY   73  63  70 VRB7      30.21S
MORRISTOWN     CLOUDY    75  68  78 SW8       30.22S
SOMERVILLE     CLOUDY    70  65  84 CALM      30.20S
SUSSEX         MOSUNNY   72  64  76 VRB7      30.21S
ANDOVER          N/A     71  64  78 SW9       30.21S
TRENTON        CLOUDY    71  66  84 S7        30.21S
MILLVILLE      PTSUNNY   74  68  81 SW8       30.23S
ATLANTIC CITY  MOSUNNY   75  66  73 S7        30.23S
WRIGHTSTOWN    MOSUNNY   74  67  80 S9        30.20S
TOMS RIVER     SUNNY    N/A N/A N/A SW7       30.22S
BELMAR         SUNNY     73  63  68 S8        30.22S
$$

PAZ047>061-062-071-301400-
EASTERN PENNSYLVANIA

CITY           SKY/WX    TMP DP  RH WIND       PRES   REMARKS
PHILADELPHIA   CLOUDY    75  67  76 SW9       30.21S
ALLENTOWN      CLOUDY    72  65  78 S7        30.21R
SCRANTON       PTSUNNY   74  65  73 SW3       30.18R
$$

CTZ002-004>006-009-010-012-RIZ004-006-007-MAZ004-011-015-301400-
SOUTHERN NEW ENGLAND
 IN CT

CITY           SKY/WX    TMP DP  RH WIND       PRES   REMARKS
BRADLEY INTL   PTSUNNY   69  60  73 S10       30.20R
HARTFORD       CLOUDY    67  62  84 SW10      30.21S
DANBURY        SUNNY     72  62  71 SW9       30.22F
WTRBRY/OXFORD  MOSUNNY   64  61  88 SW7       30.23F HAZE
BRIDGEPORT     MOSUNNY   69  64  84 S6        30.22F
MERIDEN        CLOUDY    67  62  84 S6        30.22S
NEW HAVEN      PTSUNNY   67  63  87 S6        30.22F
CHESTER        CLOUDY    64  64 100 S6        30.24S FOG
GROTON         FOG       61  60  97 S5        30.23S VSB 1/4
WILLIMANTIC    CLOUDY    64  60  87 S6        30.23S

 IN RI

CITY           SKY/WX    TMP DP  RH WIND       PRES   REMARKS
PROVIDENCE     PTSUNNY   69  61  75 S9        30.22F
BLOCK ISLAND   CLOUDY    63  59  88 SW12      30.25F VSB 1/4
WESTERLY       FOG       60  59  96 S5        30.25S VSB 1/4

 IN MA

CITY           SKY/WX    TMP DP  RH WIND       PRES   REMARKS
BOSTON         MOSUNNY   70  61  73 SW9       30.19F
WORCESTER      MOSUNNY   70  62  76 W14       30.21S
WESTFIELD      CLOUDY    68  60  75 S9        30.19F
PROVINCETOWN   MOSUNNY   63  61  94 S13       30.23S
NANTUCKET      CLOUDY    65  61  87 SW10      30.26S
$$

ANZ330-335-338-340-345-350-353-355-301400-
COASTAL MARINE OBSERVATIONS


STATION/POSITION TIME  SKY/WX   TEMP    WIND        PRES    VSBY  WAVE
                                AIR SEA DIR/SP/G                  HT/PER
                 (UTC)          (F)     (DEG/KT/KT) (MB)    (MI)  (FT/S)
NY HARB ENTRANCE 1250            63 62  190/ 12/ 14 1023.2          2/ 9
4S FIRE IS       1203               59                N/A           3/ 9
20S FIRE ISLAND  1250            61 60  190/  8/ 10 1023.8          3/ 9
GREAT SOUTH BAY  1200            64 69  230/  8/ 12   N/A
23SW MTP         1250            60 57  200/  8/  8 1024.1          2/ 9
HUDSON CANYON    NOT AVBL
KINGS POINT      1200            69 56  190/  6/  8 1022.6
CENTRAL LI SOUND 1200            60 59  180/  4/  4   N/A
EASTERN LI SOUND 1200            55     140/  8/  8   N/A
ROBBINS REEF     1200            66     160/ 10/ 11 1022.0
$$


>>>>>>>>>>>>>>>>>>>>>>>>>>>> KEY <<<<<<<<<<<<<<<<<<<<<<<<<<<
>                                                          <
>     SKY/WX - SKY CONDITION/PRESENT WEATHER               <
>     TMP    - TEMPERATURE IN FAHRENHEIT                   <
>     DP     - DEWPOINT IN FAHRENHEIT                      <
>     RH     - RELATIVE HUMIDITY IN PERCENT                <
>     WIND   - DIRECTION AND SPEED IN MPH                  <
>     PRES   - MEAN SEA LEVEL PRESSURE IN INCHES OF HG     <
>     WCI    - WIND CHILL INDEX                            <
>     VSB    - VISIBILITY IN MILES                         <
>     HX     - HEAT INDEX                                  <
>     TC     - TEMPERATURE IN CELSIUS                      <
>     VRB    - VARIABLE WIND DIRECTION                     <
>                                                          <
>>>>>>>>>>>>>>>>>>>>>>>>>>>> KEY <<<<<<<<<<<<<<<<<<<<<<<<<<<




USA.gov is the U.S. government's official web portal to all federal, state and local government web resources and services.